Погода в Сосновом Боре

Россия / Иркутская область     52°39′28″N   104°30′14″E
темп.,
°C
ветер,
м/с
пор.,
м/с
влажн.,
%
обл.,
%
осадки,
мм/ч
давл.,
гПа
погр.,
м
19 мая, ср
ср1923:00+9св3470100 0.1 1002108
02:00+7ссв3779100 0.1 1003417
05:00+7сз2689100 0.6 1004777
08:00+8сз3475100 0.7 1005696
11:00+10з3363100 0.3 10041284
14:00+12зюз4353100 0.6 10031554
17:00+13зюз2247100 0.0 10021508
20:00+11юз2257100 0.0 100115
20 мая, чт
чт2023:00+8в1163100 0.0 100110
02:00+8всв2365100 0.0 99956
05:00+7всв2562100 0.0 998147
08:00+7всв71168100 0.0 999595
11:00+7всв5674100 0.0 1001549
14:00+8ссв4473100 0.3 1001672
17:00+7всв2384100 2.4 1001417
20:00+7ююз1294100 4.4 1001109
21 мая, пт
пт2123:00+6зюз1397100 5.1 1002188
02:00+4св3584100 6.4 1003313
05:00+3с3894100 1.3 1004488
08:00+4сз3491100 1.4 1005601
11:00+6сз5677100 0.6 1006875
14:00+5сз7969100 1.6 10081085
17:00+7сз6854100 0.0 10101502
20:00+5сз51060100 0.0 1012816
22 мая, сб
сб2223:00+5зсз61360100 0.0 1013487
02:00+4зсз51264100 0.0 1013371
05:00+4сз51254100 0.0 1015297
08:00+6сз71253100 0.0 1016557
11:00+10сз81138100 0.0 10161963
14:00+12сз81030100 0.0 10162874
17:00+12ссз8103178 0.0 10162901
20:00+9сз611462 0.0 1018481
23 мая, вс
вс2323:00+5сз5127659 0.3 1021342
02:00+4зсз51287100 0.5 1022353
05:00+3зсз5128997 0.1 1023433
08:00+6сз6107115 0.1 1023619
11:00+10сз7851100 0.4 10221767
14:00+10зсз785587 1.1 10211752
17:00+10сз6853100 0.1 10201814
20:00+8сз5876100 0.3 1021865